GW1852 Weather Reports


Display with metric or nautical units.
time (UTC)temp
F
wind
direction
speed
MPH
gust
MPH
rain 1hr
in
rain 24hr
in
rain mn
in
humidity
%
barometer
mb
20260504081601 50 64 14.0 20.0 0.00 0.00 0.00 50 1015.7
20260504050023 57 64 20.0 27.0 0.00 0.00 0.00 37 1010.7
20260504044533 58 58 11.0 19.0 0.00 0.00 0.00 37 1010.3
20260504043029 59 70 12.0 19.0 0.00 0.00 0.00 35 1009.8
20260504041520 59 69 12.0 21.0 0.00 0.00 0.00 34 1009.6
20260504040022 60 72 16.0 23.0 0.00 0.00 0.00 35 1009.1
20260504034520 60 63 11.0 20.0 0.00 0.00 0.00 34 1009.0
20260504033018 61 69 14.0 21.0 0.00 0.00 0.00 32 1008.6
20260504031519 63 62 12.0 21.0 0.00 0.00 0.00 29 1008.4
20260504030016 64 63 10.0 18.0 0.00 0.00 0.00 25 1008.2
20260504024515 66 60 8.0 14.0 0.00 0.00 0.00 22 1007.8
20260504023014 67 55 7.0 13.0 0.00 0.00 0.00 21 1007.9
20260504021515 68 55 7.0 11.0 0.00 0.00 0.00 21 1007.9
20260504020012 69 51 8.0 12.0 0.00 0.00 0.00 20 1008.0
20260504014511 70 51 11.0 15.0 0.00 0.00 0.00 20 1007.9
20260504013017 72 45 12.0 17.0 0.00 0.00 0.00 19 1007.9
20260504011509 72 49 9.0 17.0 0.00 0.00 0.00 19 1007.9
20260504010007 73 54 13.0 17.0 0.00 0.00 0.00 18 1007.9
20260504004513 75 34 11.0 17.0 0.00 0.00 0.00 16 1008.1
20260504003003 75 36 8.0 13.0 0.00 0.00 0.00 17 1008.2
20260504001504 75 344 6.0 11.0 0.00 0.00 0.00 16 1008.3
20260503234558 75 6 6.0 9.0 0.00 0.00 0.00 17 1008.4
20260503233055 75 346 7.0 13.0 0.00 0.00 0.00 16 1008.6
20260503231556 75 322 6.0 9.0 0.00 0.00 0.00 16 1008.8
20260503230103 75 348 5.0 11.0 0.00 0.00 0.00 16 1008.9
20260503224557 75 15 9.0 13.0 0.00 0.00 0.00 16 1009.1
20260503223048 74 357 7.0 12.0 0.00 0.00 0.00 17 1009.2
20260503221546 75 309 6.0 11.0 0.00 0.00 0.00 15 1009.4
20260503220044 74 323 4.0 12.0 0.00 0.00 0.00 17 1009.6
20260503214543 74 340 7.0 13.0 0.00 0.00 0.00 19 1009.7
20260503213038 73 11 5.0 10.0 0.00 0.00 0.00 16 1010.1
20260503211548 73 8 5.0 12.0 0.00 0.00 0.00 16 1010.3
20260503210033 72 310 4.0 10.0 0.00 0.00 0.00 18 1010.5
20260503204533 72 325 4.0 12.0 0.00 0.00 0.00 18 1010.8
20260503203027 72 326 7.0 12.0 0.00 0.00 0.00 18 1011.0
20260503201525 72 325 6.0 12.0 0.00 0.00 0.00 18 1011.1
20260503200033 71 356 6.0 12.0 0.00 0.00 0.00 19 1011.2
20260503194521 71 331 7.0 11.0 0.00 0.00 0.00 21 1011.4
20260503193028 71 338 7.0 10.0 0.00 0.00 0.00 21 1011.6
20260503191518 70 297 4.0 9.0 0.00 0.00 0.00 21 1011.8
20260503190014 70 325 6.0 13.0 0.00 0.00 0.00 21 1012.0
20260503184513 70 299 7.0 11.0 0.00 0.00 0.00 21 1012.1
20260503183008 70 285 7.0 13.0 0.00 0.00 0.00 23 1012.4
20260503181506 69 356 6.0 12.0 0.00 0.00 0.00 22 1012.7
20260503180002 68 337 8.0 12.0 0.00 0.00 0.00 23 1012.9
20260503174601 68 350 6.0 12.0 0.00 0.00 0.00 24 1013.0
20260503173106 66 351 8.0 13.0 0.00 0.00 0.00 29 1013.2
20260503171553 64 326 5.0 8.0 0.00 0.00 0.00 31 1013.3